When you browse on this site, cookies collect data to enhance your experience and personalize the content and advertising you see.
Visit our Privacy Policy to learn more. By continuing to use the site, you agree to this use of cookies and data.
  • în România
  • Lista ţărilor
  • Pe 7 zile
  • Temperatura apei
  • Hartă satelitară
  • Meteo pe hartă
  • Widget-uri
  • user-avatar
    Intrare

    Meteo pe oră la Moyomamba

    Astăzi, 16 Iulie, Marţi

    Timp Temperatura Precipitaţii Vânt Presiune Umiditate
    00:00 +17°C° 0.1 mm 0 m/s 682 mmHg 98%
    01:00 +17°C° 0 mm 0 m/s 682 mmHg 98%
    02:00 +17°C° 0 mm 0 m/s 682 mmHg 98%
    03:00 +17°C° 0 mm 0 m/s 682 mmHg 98%
    04:00 +17°C° 0 mm 0 m/s 682 mmHg 98%
    05:00 +17°C° 0 mm 0 m/s 682 mmHg 98%
    06:00 +17°C° 0 mm 0 m/s 682 mmHg 97%
    07:00 +17°C° 0 mm 0 m/s 683 mmHg 98%
    08:00 +19°C° 0.2 mm 0 m/s 684 mmHg 91%
    09:00 +22°C° 0.2 mm 0 m/s 684 mmHg 84%
    10:00 +26°C° 0.2 mm 1 m/s 685 mmHg 77%
    11:00 +26°C° 0.7 mm 1 m/s 684 mmHg 75%
    12:00 +27°C° 0.7 mm 1 m/s 684 mmHg 72%
    13:00 +27°C° 0.7 mm 1 m/s 683 mmHg 70%
    14:00 +27°C° 0.6 mm 1 m/s 682 mmHg 75%
    15:00 +26°C° 0.6 mm 1 m/s 682 mmHg 80%
    16:00 +26°C° 0.6 mm 1 m/s 681 mmHg 85%
    17:00 +24°C° 0.5 mm 1 m/s 681 mmHg 89%
    18:00 +20°C° 0.5 mm 0 m/s 681 mmHg 92%
    19:00 +19°C° 0.5 mm 0 m/s 682 mmHg 96%
    20:00 +18°C° 0.1 mm 0 m/s 682 mmHg 96%
    21:00 +18°C° 0.1 mm 0 m/s 682 mmHg 96%
    22:00 +18°C° 0.1 mm 0 m/s 683 mmHg 97%
    23:00 +17°C° 0.3 mm 0 m/s 683 mmHg 97%

    Mâine, 17 Iulie, Miercuri

    Timp Temperatura Precipitaţii Vânt Presiune Umiditate
    00:00 +17°C° 0.3 mm 0 m/s 683 mmHg 97%
    01:00 +17°C° 0.3 mm 0 m/s 683 mmHg 97%
    02:00 +17°C° 0.3 mm 0 m/s 683 mmHg 97%
    03:00 +17°C° 0.3 mm 0 m/s 683 mmHg 97%
    04:00 +17°C° 0.3 mm 0 m/s 683 mmHg 97%
    05:00 +17°C° 0.2 mm 0 m/s 683 mmHg 97%
    06:00 +17°C° 0.2 mm 0 m/s 683 mmHg 97%
    07:00 +18°C° 0.2 mm 0 m/s 684 mmHg 97%
    08:00 +18°C° 0.4 mm 0 m/s 684 mmHg 97%
    09:00 +18°C° 0.4 mm 0 m/s 684 mmHg 97%
    10:00 +19°C° 0.4 mm 0 m/s 685 mmHg 97%
    11:00 +20°C° 0.6 mm 0 m/s 685 mmHg 95%
    12:00 +20°C° 0.6 mm 0 m/s 685 mmHg 92%
    13:00 +21°C° 0.6 mm 0 m/s 685 mmHg 89%
    14:00 +21°C° 0.3 mm 0 m/s 684 mmHg 90%
    15:00 +21°C° 0.3 mm 0 m/s 683 mmHg 91%
    16:00 +21°C° 0.3 mm 0 m/s 682 mmHg 92%
    17:00 +20°C° 0.1 mm 0 m/s 682 mmHg 94%
    18:00 +19°C° 0.1 mm 0 m/s 682 mmHg 95%
    19:00 +18°C° 0.1 mm 0 m/s 682 mmHg 97%
    20:00 +18°C° 0.1 mm 0 m/s 683 mmHg 97%
    21:00 +17°C° 0.1 mm 0 m/s 683 mmHg 96%
    22:00 +17°C° 0.1 mm 0 m/s 684 mmHg 96%
    23:00 +17°C° 0 mm 0 m/s 684 mmHg 95%

    Poimâine, 18 Iulie, Joi

    Timp Temperatura Precipitaţii Vânt Presiune Umiditate
    00:00 +18°C° 0 mm 0 m/s 683 mmHg 94%
    01:00 +18°C° 0 mm 0 m/s 683 mmHg 93%
    02:00 +18°C° 0 mm 0 m/s 683 mmHg 92%
    03:00 +18°C° 0 mm 0 m/s 683 mmHg 92%
    04:00 +18°C° 0 mm 0 m/s 683 mmHg 91%
    05:00 +18°C° 0 mm 0 m/s 683 mmHg 91%
    06:00 +18°C° 0 mm 0 m/s 683 mmHg 92%
    07:00 +18°C° 0 mm 0 m/s 684 mmHg 92%
    08:00 +19°C° 0.1 mm 0 m/s 684 mmHg 86%
    09:00 +21°C° 0.1 mm 0 m/s 685 mmHg 81%
    10:00 +22°C° 0.1 mm 0 m/s 685 mmHg 76%
    11:00 +23°C° 0.3 mm 0 m/s 685 mmHg 74%
    12:00 +23°C° 0.3 mm 0 m/s 684 mmHg 72%
    13:00 +24°C° 0.3 mm 0 m/s 684 mmHg 70%
    14:00 +26°C° 0.9 mm 1 m/s 683 mmHg 77%
    15:00 +25°C° 0.9 mm 1 m/s 682 mmHg 83%
    16:00 +25°C° 0.9 mm 1 m/s 682 mmHg 89%
    17:00 +24°C° 0.6 mm 1 m/s 682 mmHg 92%
    18:00 +20°C° 0.6 mm 0 m/s 682 mmHg 95%
    19:00 +19°C° 0.6 mm 0 m/s 682 mmHg 98%
    20:00 +18°C° 0.1 mm 0 m/s 682 mmHg 98%
    21:00 +18°C° 0.1 mm 0 m/s 683 mmHg 97%
    22:00 +18°C° 0.1 mm 0 m/s 683 mmHg 97%
    23:00 +17°C° 0.1 mm 0 m/s 683 mmHg 97%

    19 Iulie, Vineri

    Timp Temperatura Precipitaţii Vânt Presiune Umiditate
    00:00 +17°C° 0.1 mm 0 m/s 683 mmHg 97%
    01:00 +17°C° 0.1 mm 0 m/s 683 mmHg 97%
    02:00 +17°C° 0 mm 0 m/s 683 mmHg 97%
    03:00 +17°C° 0 mm 0 m/s 682 mmHg 97%
    04:00 +17°C° 0 mm 0 m/s 682 mmHg 97%
    05:00 +17°C° 0 mm 0 m/s 682 mmHg 97%
    06:00 +17°C° 0 mm 0 m/s 683 mmHg 96%
    07:00 +17°C° 0 mm 0 m/s 683 mmHg 96%
    08:00 +19°C° 0.2 mm 0 m/s 684 mmHg 90%
    09:00 +21°C° 0.2 mm 0 m/s 684 mmHg 83%
    10:00 +23°C° 0.2 mm 0 m/s 685 mmHg 77%
    11:00 +26°C° 0.8 mm 1 m/s 684 mmHg 77%
    12:00 +26°C° 0.8 mm 1 m/s 684 mmHg 78%
    13:00 +27°C° 0.8 mm 1 m/s 683 mmHg 78%
    14:00 +26°C° 0.8 mm 1 m/s 682 mmHg 81%
    15:00 +24°C° 0.8 mm 0 m/s 681 mmHg 84%
    16:00 +24°C° 0.8 mm 0 m/s 681 mmHg 87%
    17:00 +22°C° 0.4 mm 0 m/s 681 mmHg 90%
    18:00 +20°C° 0.4 mm 0 m/s 681 mmHg 93%
    19:00 +19°C° 0.4 mm 0 m/s 681 mmHg 96%
    20:00 +18°C° 0.2 mm 0 m/s 682 mmHg 96%
    21:00 +18°C° 0.2 mm 0 m/s 682 mmHg 97%
    22:00 +20°C° 0.2 mm 1 m/s 683 mmHg 97%
    23:00 +17°C° 0.1 mm 0 m/s 682 mmHg 97%

    20 Iulie, Sâmbătă

    Timp Temperatura Precipitaţii Vânt Presiune Umiditate
    00:00 +17°C° 0.1 mm 0 m/s 682 mmHg 97%
    01:00 +17°C° 0.1 mm 0 m/s 682 mmHg 97%
    02:00 +17°C° 0 mm 0 m/s 682 mmHg 97%
    03:00 +17°C° 0 mm 0 m/s 681 mmHg 97%
    04:00 +17°C° 0 mm 0 m/s 681 mmHg 97%
    05:00 +17°C° 0 mm 0 m/s 682 mmHg 97%
    06:00 +17°C° 0 mm 0 m/s 682 mmHg 97%
    07:00 +17°C° 0 mm 0 m/s 682 mmHg 96%
    08:00 +19°C° 0 mm 0 m/s 683 mmHg 88%
    09:00 +22°C° 0 mm 0 m/s 684 mmHg 79%
    10:00 +26°C° 0 mm 1 m/s 684 mmHg 70%
    11:00 +27°C° 0.3 mm 1 m/s 684 mmHg 68%
    12:00 +28°C° 0.3 mm 1 m/s 683 mmHg 65%
    13:00 +29°C° 0.3 mm 1 m/s 683 mmHg 63%
    14:00 +28°C° 0.3 mm 1 m/s 682 mmHg 65%
    15:00 +28°C° 0.3 mm 1 m/s 681 mmHg 68%
    16:00 +27°C° 0.3 mm 1 m/s 680 mmHg 70%
    17:00 +25°C° 0.3 mm 1 m/s 680 mmHg 79%
    18:00 +21°C° 0.3 mm 0 m/s 680 mmHg 88%
    19:00 +19°C° 0.3 mm 0 m/s 680 mmHg 98%
    20:00 +19°C° 0.1 mm 0 m/s 681 mmHg 98%
    21:00 +18°C° 0.1 mm 0 m/s 681 mmHg 98%
    22:00 +18°C° 0.1 mm 0 m/s 682 mmHg 98%
    23:00 +18°C° 0.1 mm 0 m/s 682 mmHg 98%

    21 Iulie, Duminică

    Timp Temperatura Precipitaţii Vânt Presiune Umiditate
    00:00 +18°C° 0.1 mm 0 m/s 682 mmHg 98%
    01:00 +17°C° 0.1 mm 0 m/s 681 mmHg 98%
    02:00 +17°C° 0 mm 0 m/s 681 mmHg 97%
    03:00 +17°C° 0 mm 0 m/s 681 mmHg 97%
    04:00 +17°C° 0 mm 0 m/s 680 mmHg 97%
    05:00 +17°C° 0 mm 0 m/s 681 mmHg 97%
    06:00 +17°C° 0 mm 0 m/s 681 mmHg 97%
    07:00 +17°C° 0 mm 0 m/s 682 mmHg 96%
    08:00 +19°C° 0 mm 0 m/s 682 mmHg 90%
    09:00 +21°C° 0 mm 0 m/s 683 mmHg 83%
    10:00 +23°C° 0 mm 0 m/s 683 mmHg 77%
    11:00 +24°C° 0.2 mm 0 m/s 683 mmHg 70%
    12:00 +26°C° 0.2 mm 0 m/s 683 mmHg 63%
    13:00 +27°C° 0.2 mm 0 m/s 683 mmHg 56%
    14:00 +27°C° 0.5 mm 0 m/s 682 mmHg 62%
    15:00 +26°C° 0.5 mm 0 m/s 681 mmHg 67%
    16:00 +25°C° 0.5 mm 0 m/s 680 mmHg 73%
    17:00 +23°C° 0.2 mm 0 m/s 680 mmHg 80%
    18:00 +21°C° 0.2 mm 0 m/s 680 mmHg 87%
    19:00 +19°C° 0.2 mm 0 m/s 680 mmHg 94%
    20:00 +19°C° 0 mm 0 m/s 680 mmHg 94%
    21:00 +18°C° 0 mm 0 m/s 681 mmHg 94%
    22:00 +18°C° 0 mm 0 m/s 682 mmHg 94%
    23:00 +18°C° 0.1 mm 0 m/s 681 mmHg 95%
    Arată mai mult